FENGYUN 1C DEB

Satellite information

Favourite Embed

Satellite Type and Status

DEBRISIN ORBIT

Key statistics

Satellite FENGYUN 1C DEB at a glance.

Uptime

9660

Days in orbit

Revolutions

≈ 14.5

Per day

Orbit

SSO

Sun Synchronous Orbit

Inclination

98.8

Latest

Satellite identification and parameters

Extended collection of information and parameters for FENGYUN 1C DEB.

Object identification

Identified? True

Debris? True

Object name: FENGYUN 1C DEB

International designator: 1999-025DSQ

Object number (NORAD): 36167

Object ID (CCSDS): 36167

Country: PEOPLES REPUBLIC OF CHINA (PRC)

Current information (Y/N): Y

RCS size: SMALL

Orbital parameters

Period: 99.413 minutes

Inclination: 98.811 deg

SMA: 7108.685 km

Apoapsis: 782.276 km

Periapsis: 678.825 km

RAAN: 195.7306 deg

Eccentricy: 0.0072764

Argument of periapsis: 52.0421 deg

Mean anomaly: 308.7316 deg

Mean motion: 14.48501092 rev/day

Mean motion (dot): 0.00007008 rev/day2

B* drag term: 0.0018173 1/REarth

Two-line elements (TLE)

Creation date: Oct. 18, 2025, 8:36 a.m.

Reference frame: TEME

Reference center: EARTH

Epoch: Oct. 17, 2025, 11:56 p.m. UTC

TLE line 0: 0 FENGYUN 1C DEB

TLE line 1: 1 36167U 99025DSQ 25290.99754001 .00007008 00000-0 18173-2 0 9998

TLE line 2: 2 36167 98.8110 195.7306 0072764 52.0421 308.7316 14.48501092664720

Live tracking on map

Real-time ground track for satellite FENGYUN 1C DEB.

In-orbit conjunctions

A list of the most updated potential collisions computed for object FENGYUN 1C DEB.

Target Orbit TCA Probability of collision Miss distance Type
COSMOS 332 LEO 2025-02-11 09:13:38 0.0002621468 443.0 (m) PAYLOAD
COSMOS 1570 LEO 2025-01-28 16:55:37 0.0001051224 487.0 (m) PAYLOAD
CZ-6A DEB LEO 2024-10-10 06:09:26 0.000111023 869.0 (m) DEBRIS
CZ-6A DEB SSO 2024-06-13 13:13:44 0.0002713806 128.0 (m) DEBRIS

Associated space launch

Chinese polar orbiting meteorological satellite

FENGYUN 1C DEB was lifted into orbit during the mission ‘Long March 4B | Feng Yun 1C’, on board a Long March 4B space rocket.

The launch took place on May 10, 1999, 1:33 a.m. from Launch Complex 7.

For more information about the launch, click the button.

Launch to space Long March 4B | Feng Yun 1C
Long March 4B | Feng Yun 1C

Agency: N/A

Status: Launch Successful

Launch date: May 10, 1999, 1:33 a.m. UTC

Rocket: Long March 4B

Launch pad: Launch Complex 7

Location: Taiyuan Satellite Launch Center, People's Republic of China

...

Latest news about this satellite

There are no fresh news available about this satellite. Check back as we update our databases every day.


Newsletter sign-up

Weekly statistics, charts and insights to help you stay on top of the space industry.